Regional Weather Roundup
Issued by NWS Upton, NY

Current Version | Previous Version | Graphics & Text | Print | Product List | Glossary Off
Versions: 1 2 3 4 5 6 7 8 9 10 11 12 13 14 15 16 17 18 19 20 21 22 23 24 25 26 27

000
ASUS41 KOKX 250804
RWROKX

REGIONAL WEATHER ROUNDUP
NATIONAL WEATHER SERVICE NEW YORK NY
400 AM EDT WED MAY 25 2016

NOTE: "FAIR" INDICATES FEW OR NO CLOUDS BELOW 12,000 FEET WITH NO
SIGNIFICANT WEATHER AND/OR OBSTRUCTIONS TO VISIBILITY.

NYZ071-072-176-178-NJZ106-104-250900-
NEW YORK CITY METRO AREA


CITY           SKY/WX    TMP DP  RH WIND       PRES   REMARKS
CENTRAL PARK   CLEAR     63  50  62 CALM      30.04R
LAGUARDIA APRT CLEAR     64  57  78 N5        30.00R
KENNEDY INTL   PTCLDY    60  55  83 CALM      30.02R
NEWARK/LIBERTY CLEAR     60  52  74 CALM      30.01R
BRNX BOT. GARD   N/A     59  52  77 NW1       30.03S
TETERBORO      CLEAR     57  51  80 CALM      30.00S
$$

NYZ177-179-078>081-250900-
LONG ISLAND NEW YORK

CITY           SKY/WX    TMP DP  RH WIND       PRES   REMARKS
FARMINGDALE    CLEAR     57  55  93 CALM      30.01S
ISLIP          CLEAR     57  56  96 CALM      30.00S FOG
SHIRLEY        CLEAR     55  53  93 CALM      30.01S FOG
RIVERHEAD        N/A     52  52 100 CALM      30.01R
WESTHAMPTON    PTCLDY    43  43 100 CALM      30.03R
EAST HAMPTON   MOCLDY    47  47  98 CALM      30.00S FOG
MONTAUK POINT    N/A     56  56 100 W3        30.02R
$$

NYZ052-065-067-250900-
HUDSON VALLEY

CITY           SKY/WX    TMP DP  RH WIND       PRES   REMARKS
WHITE PLAINS   CLEAR     54  53  97 CALM      30.01R
NEWBURGH       CLEAR     55  54  94 W8        30.02S
MONTGOMERY     PTCLDY    47  46  97 CALM      30.01S FOG
POUGHKEEPSIE   CLEAR     51  49  92 E5        29.99F
ALBANY         FOG       55  54  96 S6        29.99R VSB 1
$$

NJZ001-105-106-008-010-013-015-019>022-104-250900-
NEW JERSEY

CITY           SKY/WX    TMP DP  RH WIND       PRES   REMARKS
NEWARK/LIBERTY CLEAR     60  52  74 CALM      30.01R
TETERBORO      CLEAR     57  51  80 CALM      30.00S
CALDWELL       CLEAR     53  51  93 CALM      30.02S
MORRISTOWN     PTCLDY    46  46 100 CALM      30.03R
SOMERVILLE     PTCLDY    49  47  93 CALM      30.02R FOG
SUSSEX         CLEAR     48  46  93 S3        30.04R
ANDOVER          N/A     51  50  96 S3        30.05R
TRENTON        CLEAR     58  52  80 NW5       30.03R
MILLVILLE      CLEAR     56  51  84 W8        30.04R
ATLANTIC CITY  CLEAR     59  53  80 W5        30.03R
WRIGHTSTOWN    CLEAR     54  53  95 W1        30.01R
TOMS RIVER     CLEAR     50  46  87 CALM      30.03R
BELMAR         CLEAR     55  52  89 CALM      30.03R
$$

PAZ047>061-062-071-250900-
EASTERN PENNSYLVANIA

CITY           SKY/WX    TMP DP  RH WIND       PRES   REMARKS
PHILADELPHIA   CLEAR     61  52  72 W3        30.06R
ALLENTOWN      CLEAR     54  50  86 CALM      30.05R
SCRANTON       CLEAR     52  42  69 E3        30.05S
$$

CTZ002-004>006-009-010-012-RIZ004-006-007-MAZ004-011-015-250900-
SOUTHERN NEW ENGLAND
 IN CT

CITY           SKY/WX    TMP DP  RH WIND       PRES   REMARKS
BRADLEY INTL   CLOUDY    52  50  93 CALM      29.98F FOG
HARTFORD       MOCLDY    56  54  93 S3        30.00R
DANBURY        MOCLDY    53  51  93 CALM      30.02S
WTRBRY/OXFORD    N/A     55  52  88 W3        30.03S
BRIDGEPORT     CLEAR     58  57  97 CALM      30.00S
MERIDEN        FOG       53  51  93 CALM      30.01R VSB 1/4
NEW HAVEN      FOG       50  50 100 CALM      30.00S VSB 1
CHESTER        FAIR      57  55  94 CALM      30.01R
GROTON         FOG       54  54 100 CALM      30.00R VSB 1/4
WILLIMANTIC    FOG       54  51  90 CALM      30.01R VSB 1/4

 IN RI

CITY           SKY/WX    TMP DP  RH WIND       PRES   REMARKS
PROVIDENCE     CLOUDY    56  54  93 CALM      30.00S
BLOCK ISLAND   PTCLDY    53  53 100 W5        30.02R
WESTERLY       FOG       55  52  89 CALM      30.01R VSB 1/4

 IN MA

CITY           SKY/WX    TMP DP  RH WIND       PRES   REMARKS
BOSTON         CLOUDY    53  52  96 CALM      29.99S
WORCESTER      MOCLDY    52  51  97 W6        29.99R FOG
WESTFIELD      FOG       52  50  93 CALM      29.99R VSB 1/2
PROVINCETOWN   LGT RAIN  51  51 100 NW7       29.99R VSB 1
NANTUCKET      CLOUDY    55  52  89 NW8       29.98R
$$

ANZ330-335-338-340-345-350-353-355-250900-
COASTAL MARINE OBSERVATIONS


STATION/POSITION TIME  SKY/WX   TEMP    WIND        PRES    VSBY  WAVE
                                AIR SEA DIR/SP/G                  HT/PER
                 (UTC)          (F)     (DEG/KT/KT) (MB)    (MI)  (FT/S)
NY HARB ENTRANCE 0650            59 58  270/  6/  6 1015.7          2/ 7
20S FIRE ISLAND  0650            58 55  290/  4/  4 1015.7          3/ 8
GREAT SOUTH BAY  0700            61 64  230/  6/  8   N/A
23 SSW MONTAUK P 0750            55 55  250/  2/  4 1015.8          3/ 8
15 E BARNEGAT LI 0722               55                N/A           3/ 9
HUDSON CANYON    0650            56 53              1015.5          3/11
KINGS POINT      0700            59 56              1015.6
EXECUTION ROCKS  NOT AVBL
CENTRAL LI SOUND 0700            56     240/  2/  6   N/A           0
EASTERN LI SOUND 0700            54 52   CALM  /  2   N/A
ROBBINS REEF     0700            63     260/  8/  8 1015.3
$$


>>>>>>>>>>>>>>>>>>>>>>>>>>>> KEY <<<<<<<<<<<<<<<<<<<<<<<<<<<
>                                                          <
>     SKY/WX - SKY CONDITION/PRESENT WEATHER               <
>     TMP    - TEMPERATURE IN FAHRENHEIT                   <
>     DP     - DEWPOINT IN FAHRENHEIT                      <
>     RH     - RELATIVE HUMIDITY IN PERCENT                <
>     WIND   - DIRECTION AND SPEED IN MPH                  <
>     PRES   - MEAN SEA LEVEL PRESSURE IN INCHES OF HG     <
>     WCI    - WIND CHILL INDEX                            <
>     VSB    - VISIBILITY IN MILES                         <
>     HX     - HEAT INDEX                                  <
>     TC     - TEMPERATURE IN CELSIUS                      <
>     VRB    - VARIABLE WIND DIRECTION                     <
>                                                          <
>>>>>>>>>>>>>>>>>>>>>>>>>>>> KEY <<<<<<<<<<<<<<<<<<<<<<<<<<<






USA.gov is the U.S. government's official web portal to all federal, state and local government web resources and services.